Tracking 22438 objects as of 24-Feb-2021
HD Live streaming from Space Station
objects crossing your sky now

BREEZE-M DEB

Track BREEZE-M DEB now!
10-day predictions


NORAD ID: 32036
Int'l Code: 2006-006P
Perigee: 463.4 km
Apogee: 14,735.9 km
Inclination: 51.7 °
Period: 273.9 minutes
Semi major axis: 13970 km
RCS: 0.044 m2 (small)
Launch date: February 28, 2006
Source: Commonwealth of Independent States (former USSR) (CIS)
Launch site: TYURATAM MISSILE AND SPACE COMPLEX (TTMTR)

Note: This is SATELLITE DEBRIS
aabbcc
Your satellite tracking list
Your tracking list is empty




NASA's NSSDC Master Catalog

Two Line Element Set (TLE):
1 32036U 06006P   21054.41286580 -.00000058  00000-0  39606-4 0  9994
2 32036  51.6557 101.2704 5108031  78.3637 332.6543  5.25747402268190
Source of the keplerian elements: AFSPC